Location: Buisson
(44.2787°N, 4.9969°E)
Time: 07:45:05
(UTC+00:00)

Meteor 2-9 Rocket - Pass Details

Date: 18 April 2021
Orbit: 792 x 894 km, 81.3° (Epoch: 05 May)

Event Time Altitude Azimuth Distance (km) Brightness Sun altitude
Rises 02:17:21 0° 344° (NNW) 3,506 7.8 -24.3°
Reaches altitude 10° 02:19:53 10° 339° (NNW) 2,568 7.0 -24.0°
Maximum altitude 02:25:29 49° 267° (W) 1,148 4.5 -23.3°
Enters shadow 02:25:52 48° 254° (WSW) 1,158 4.5 -23.2°
